DMSSP EDAC-EDVK

Flight info

Callsign DMSSP
Flight time 1h 8m
Altitude 4500
Route EDDE ODIPI
Aircraft TL30/L-SDGRY/S

Departure

Time 2026-04-23 16:53
Airport Leipzig–Altenburg Airport (EDAC)

Arrival

Time 2026-04-23 18:01
Airport Kassel Airport (EDVK)
Time Latitude Longitude Altitude Speed Heading
2026-04-23 16:23 50.97902 12.50926 628 ft 0 kts 137°
2026-04-23 16:47 50.97902 12.50927 655 ft 1 kts 137°
2026-04-23 16:48 50.97878 12.50910 628 ft 9 kts 201°
2026-04-23 16:48 50.97813 12.50852 630 ft 12 kts 228°
2026-04-23 16:48 50.97765 12.50734 637 ft 14 kts 274°
2026-04-23 16:48 50.97713 12.50603 634 ft 16 kts 226°
2026-04-23 16:49 50.97657 12.50516 635 ft 17 kts 223°
2026-04-23 16:49 50.97548 12.50342 639 ft 9 kts 242°
2026-04-23 16:49 50.97554 12.50234 640 ft 11 kts 302°
2026-04-23 16:49 50.97585 12.50171 640 ft 0 kts 321°
2026-04-23 16:50 50.97597 12.50151 640 ft 10 kts 313°
2026-04-23 16:50 50.97627 12.50097 640 ft 0 kts 311°
2026-04-23 16:51 50.97632 12.50087 640 ft 6 kts 309°
2026-04-23 16:51 50.97653 12.50048 639 ft 0 kts 311°
2026-04-23 16:52 50.97659 12.50037 639 ft 5 kts 309°
2026-04-23 16:52 50.97711 12.50025 639 ft 16 kts 33°
2026-04-23 16:52 50.97922 12.50361 731 ft 63 kts 54°
2026-04-23 16:52 50.98153 12.50973 1049 ft 66 kts 43°
2026-04-23 16:53 50.98499 12.51556 1296 ft 81 kts 38°
2026-04-23 16:53 50.98904 12.52253 1522 ft 87 kts 38°
2026-04-23 16:53 50.99442 12.52416 1759 ft 80 kts 337°
2026-04-23 16:53 50.99629 12.51664 2006 ft 89 kts 254°
2026-04-23 16:54 50.99294 12.50844 2320 ft 86 kts 248°
2026-04-23 16:54 50.98976 12.49913 2642 ft 100 kts 248°
2026-04-23 16:54 50.98654 12.48964 2925 ft 94 kts 250°
2026-04-23 16:54 50.98353 12.48085 3251 ft 90 kts 249°
2026-04-23 16:55 50.98249 12.47081 3497 ft 93 kts 277°
2026-04-23 16:55 50.98244 12.45962 3742 ft 108 kts 275°
2026-04-23 16:55 50.98239 12.44811 3958 ft 103 kts 277°
2026-04-23 16:55 50.98228 12.43664 4191 ft 105 kts 274°
2026-04-23 16:56 50.98202 12.42525 4429 ft 101 kts 275°
2026-04-23 16:56 50.98226 12.41343 4495 ft 115 kts 277°
2026-04-23 16:56 50.98246 12.40090 4492 ft 114 kts 276°
2026-04-23 16:56 50.98247 12.38837 4495 ft 113 kts 276°
2026-04-23 16:57 50.98250 12.37569 4502 ft 116 kts 278°
2026-04-23 16:57 50.98258 12.36259 4487 ft 121 kts 275°
2026-04-23 16:57 50.98256 12.34941 4507 ft 121 kts 275°
2026-04-23 16:57 50.98261 12.33618 4502 ft 117 kts 274°
2026-04-23 16:58 50.98259 12.32313 4501 ft 117 kts 275°
2026-04-23 16:58 50.98289 12.31015 4514 ft 119 kts 277°
2026-04-23 16:58 50.98286 12.29682 4498 ft 118 kts 274°
2026-04-23 16:58 50.98265 12.28402 4496 ft 114 kts 275°
2026-04-23 16:59 50.98286 12.27130 4516 ft 118 kts 276°
2026-04-23 16:59 50.98292 12.25793 4514 ft 123 kts 275°
2026-04-23 16:59 50.98301 12.24433 4503 ft 124 kts 276°
2026-04-23 16:59 50.98299 12.23113 4503 ft 116 kts 274°
2026-04-23 17:00 50.98293 12.21848 4516 ft 116 kts 278°
2026-04-23 17:00 50.98310 12.20553 4503 ft 117 kts 275°
2026-04-23 17:00 50.98310 12.19251 4499 ft 118 kts 276°
2026-04-23 17:00 50.98312 12.17972 4505 ft 114 kts 275°
2026-04-23 17:01 50.98313 12.16668 4513 ft 121 kts 276°
2026-04-23 17:01 50.98324 12.15345 4508 ft 120 kts 275°
2026-04-23 17:01 50.98325 12.14037 4523 ft 120 kts 274°
2026-04-23 17:01 50.98324 12.12702 4516 ft 120 kts 276°
2026-04-23 17:02 50.98318 12.11808 4505 ft 125 kts 275°
2026-04-23 17:02 50.98326 12.10032 4534 ft 117 kts 276°
2026-04-23 17:02 50.98336 12.08729 4532 ft 117 kts 278°
2026-04-23 17:02 50.98339 12.07441 4531 ft 116 kts 275°
2026-04-23 17:03 50.98341 12.06134 4519 ft 117 kts 275°
2026-04-23 17:03 50.98342 12.04855 4522 ft 115 kts 276°
2026-04-23 17:03 50.98338 12.03545 4516 ft 119 kts 275°
2026-04-23 17:03 50.98340 12.02250 4518 ft 116 kts 275°
2026-04-23 17:04 50.98343 12.00969 4540 ft 121 kts 276°
2026-04-23 17:04 50.98345 11.99627 4527 ft 118 kts 275°
2026-04-23 17:04 50.98346 11.98304 4514 ft 119 kts 275°
2026-04-23 17:04 50.98345 11.97010 4535 ft 121 kts 276°
2026-04-23 17:05 50.98345 11.95644 4533 ft 125 kts 275°
2026-04-23 17:05 50.98344 11.94269 4532 ft 123 kts 274°
2026-04-23 17:05 50.98346 11.92918 4532 ft 123 kts 276°
2026-04-23 17:05 50.98349 11.91573 4521 ft 118 kts 275°
2026-04-23 17:06 50.98350 11.90293 4520 ft 114 kts 275°
2026-04-23 17:06 50.98349 11.89047 4527 ft 113 kts 275°
2026-04-23 17:06 50.98352 11.87750 4512 ft 121 kts 274°
2026-04-23 17:06 50.98346 11.86456 4525 ft 115 kts 276°
2026-04-23 17:07 50.98349 11.85210 4525 ft 114 kts 275°
2026-04-23 17:07 50.98349 11.83956 4524 ft 113 kts 275°
2026-04-23 17:07 50.98351 11.82700 4534 ft 116 kts 274°
2026-04-23 17:07 50.98343 11.81408 4539 ft 119 kts 274°
2026-04-23 17:08 50.98343 11.80077 4542 ft 121 kts 275°
2026-04-23 17:08 50.98344 11.78724 4536 ft 122 kts 278°
2026-04-23 17:08 50.98344 11.77401 4521 ft 117 kts 275°
2026-04-23 17:08 50.98345 11.76100 4521 ft 120 kts 275°
2026-04-23 17:09 50.98342 11.74806 4525 ft 116 kts 275°
2026-04-23 17:09 50.98341 11.73526 4523 ft 115 kts 275°
2026-04-23 17:09 50.98339 11.72251 4524 ft 116 kts 274°
2026-04-23 17:09 50.98337 11.70966 4525 ft 117 kts 275°
2026-04-23 17:10 50.98334 11.69680 4522 ft 116 kts 275°
2026-04-23 17:10 50.98333 11.68410 4521 ft 115 kts 275°
2026-04-23 17:10 50.98330 11.67147 4534 ft 116 kts 274°
2026-04-23 17:10 50.98330 11.65848 4537 ft 120 kts 275°
2026-04-23 17:11 50.98333 11.64509 4529 ft 120 kts 274°
2026-04-23 17:11 50.98321 11.63200 4524 ft 117 kts 274°
2026-04-23 17:11 50.98315 11.61913 4522 ft 116 kts 275°
2026-04-23 17:11 50.98318 11.60625 4527 ft 117 kts 278°
2026-04-23 17:12 50.98331 11.59774 4523 ft 117 kts 274°
2026-04-23 17:12 50.98306 11.58037 4533 ft 119 kts 274°
2026-04-23 17:12 50.98308 11.56721 4537 ft 120 kts 275°
2026-04-23 17:12 50.98298 11.55389 4528 ft 120 kts 275°
2026-04-23 17:13 50.98294 11.54050 4524 ft 122 kts 274°
2026-04-23 17:13 50.98286 11.52741 4538 ft 119 kts 274°
2026-04-23 17:13 50.98281 11.51437 4535 ft 115 kts 275°
2026-04-23 17:13 50.98284 11.50152 4527 ft 119 kts 275°
2026-04-23 17:14 50.98285 11.49296 4522 ft 116 kts 275°
2026-04-23 17:14 50.98319 11.48021 4530 ft 116 kts 278°
2026-04-23 17:14 50.98286 11.46740 4530 ft 116 kts 270°
2026-04-23 17:14 50.98258 11.45455 4527 ft 115 kts 274°
2026-04-23 17:15 50.98252 11.44179 4539 ft 117 kts 275°
2026-04-23 17:15 50.98250 11.42895 4525 ft 113 kts 275°
2026-04-23 17:15 50.98249 11.41661 4535 ft 111 kts 274°
2026-04-23 17:15 50.98248 11.40386 4543 ft 118 kts 275°
2026-04-23 17:16 50.98244 11.39095 4530 ft 115 kts 274°
2026-04-23 17:16 50.98239 11.37834 4522 ft 114 kts 275°
2026-04-23 17:16 50.98234 11.36550 4522 ft 117 kts 274°
2026-04-23 17:16 50.98228 11.35279 4526 ft 115 kts 275°
2026-04-23 17:17 50.98222 11.34012 4524 ft 114 kts 275°
2026-04-23 17:17 50.98216 11.32759 4540 ft 116 kts 276°
2026-04-23 17:17 50.98210 11.31469 4525 ft 115 kts 274°
2026-04-23 17:17 50.98206 11.30190 4533 ft 117 kts 272°
2026-04-23 17:18 50.98189 11.27666 4524 ft 112 kts 275°
2026-04-23 17:18 50.98185 11.26410 4523 ft 116 kts 275°
2026-04-23 17:18 50.98182 11.25112 4539 ft 120 kts 274°
2026-04-23 17:19 50.98179 11.23775 4536 ft 121 kts 274°
2026-04-23 17:19 50.98165 11.22437 4524 ft 119 kts 275°
2026-04-23 17:19 50.98153 11.21117 4534 ft 121 kts 274°
2026-04-23 17:19 50.98151 11.19807 4530 ft 118 kts 276°
2026-04-23 17:20 50.98145 11.18510 4530 ft 118 kts 274°
2026-04-23 17:20 50.98123 11.15911 4531 ft 119 kts 275°
2026-04-23 17:21 50.98104 11.13318 4533 ft 117 kts 275°
2026-04-23 17:21 50.98097 11.12015 4519 ft 119 kts 274°
2026-04-23 17:21 50.98084 11.09471 4527 ft 115 kts 275°
2026-04-23 17:22 50.98075 11.08204 4531 ft 114 kts 274°
2026-04-23 17:22 50.98056 11.05680 4516 ft 115 kts 274°
2026-04-23 17:23 50.98041 11.03136 4525 ft 116 kts 274°
2026-04-23 17:23 50.98031 11.01850 4528 ft 117 kts 275°
2026-04-23 17:23 50.98010 10.99295 4522 ft 113 kts 275°
2026-04-23 17:24 50.98001 10.98056 4519 ft 111 kts 275°
2026-04-23 17:24 50.97990 10.96826 4519 ft 111 kts 275°
2026-04-23 17:24 50.98274 10.94497 4532 ft 109 kts 294°
2026-04-23 17:25 50.98791 10.92215 4515 ft 115 kts 295°
2026-04-23 17:25 50.99053 10.91054 4527 ft 113 kts 295°
2026-04-23 17:26 50.99584 10.88699 4532 ft 110 kts 295°
2026-04-23 17:26 51.00089 10.86432 4534 ft 110 kts 296°
2026-04-23 17:27 51.00588 10.84188 4520 ft 105 kts 295°
2026-04-23 17:27 51.00838 10.83111 4540 ft 107 kts 296°
2026-04-23 17:27 51.01100 10.81943 4535 ft 114 kts 295°
2026-04-23 17:27 51.01363 10.80746 4535 ft 117 kts 294°
2026-04-23 17:28 51.01633 10.79513 4535 ft 118 kts 294°
2026-04-23 17:28 51.01908 10.78312 4523 ft 112 kts 295°
2026-04-23 17:28 51.02156 10.77165 4532 ft 109 kts 295°
2026-04-23 17:28 51.02416 10.76007 4539 ft 113 kts 295°
2026-04-23 17:29 51.02672 10.74851 4533 ft 109 kts 294°
2026-04-23 17:29 51.02933 10.73702 4536 ft 111 kts 294°
2026-04-23 17:29 51.03450 10.71368 4524 ft 109 kts 294°
2026-04-23 17:30 51.03700 10.70240 4532 ft 109 kts 295°
2026-04-23 17:30 51.04205 10.67922 4522 ft 112 kts 294°
2026-04-23 17:30 51.04465 10.66779 4538 ft 111 kts 295°
2026-04-23 17:31 51.04728 10.65616 4537 ft 111 kts 294°
2026-04-23 17:31 51.04985 10.64460 4539 ft 111 kts 294°
2026-04-23 17:31 51.05245 10.63286 4532 ft 114 kts 294°
2026-04-23 17:31 51.05506 10.62107 4532 ft 114 kts 295°
2026-04-23 17:32 51.05762 10.60939 4532 ft 112 kts 294°
2026-04-23 17:32 51.06015 10.59768 4529 ft 110 kts 295°
2026-04-23 17:32 51.06279 10.58611 4548 ft 114 kts 294°
2026-04-23 17:32 51.06536 10.57450 4552 ft 111 kts 296°
2026-04-23 17:33 51.06788 10.56303 4535 ft 108 kts 294°
2026-04-23 17:33 51.07031 10.55186 4535 ft 106 kts 294°
2026-04-23 17:33 51.07279 10.54077 4535 ft 108 kts 296°
2026-04-23 17:33 51.07535 10.52949 4537 ft 110 kts 294°
2026-04-23 17:34 51.07775 10.51814 4538 ft 107 kts 294°
2026-04-23 17:34 51.08017 10.50702 4538 ft 106 kts 295°
2026-04-23 17:34 51.08504 10.48497 4539 ft 106 kts 294°
2026-04-23 17:35 51.08749 10.47386 4541 ft 106 kts 294°
2026-04-23 17:35 51.09235 10.45176 4542 ft 107 kts 295°
2026-04-23 17:35 51.09479 10.44065 4542 ft 106 kts 295°
2026-04-23 17:36 51.09721 10.42963 4543 ft 106 kts 295°
2026-04-23 17:36 51.09965 10.41853 4547 ft 107 kts 294°
2026-04-23 17:36 51.10210 10.40735 4545 ft 107 kts 294°
2026-04-23 17:36 51.10454 10.39620 4540 ft 107 kts 295°
2026-04-23 17:37 51.10697 10.38511 4540 ft 106 kts 295°
2026-04-23 17:37 51.10936 10.37415 4542 ft 104 kts 295°
2026-04-23 17:37 51.11413 10.35238 4547 ft 106 kts 295°
2026-04-23 17:38 51.11654 10.34138 4544 ft 105 kts 295°
2026-04-23 17:38 51.11894 10.33036 4544 ft 108 kts 294°
2026-04-23 17:38 51.12120 10.31920 4570 ft 105 kts 294°
2026-04-23 17:38 51.12394 10.30786 4560 ft 112 kts 296°
2026-04-23 17:39 51.12644 10.29643 4542 ft 106 kts 294°
2026-04-23 17:39 51.12873 10.28550 4546 ft 103 kts 295°
2026-04-23 17:39 51.13109 10.27455 4580 ft 105 kts 297°
2026-04-23 17:39 51.13360 10.26307 4564 ft 108 kts 296°
2026-04-23 17:40 51.13603 10.25182 4557 ft 106 kts 293°
2026-04-23 17:40 51.13840 10.24084 4552 ft 103 kts 294°
2026-04-23 17:40 51.14085 10.23013 4557 ft 103 kts 293°
2026-04-23 17:40 51.14310 10.21937 4555 ft 102 kts 295°
2026-04-23 17:41 51.14608 10.20906 4566 ft 105 kts 306°
2026-04-23 17:41 51.15294 10.18919 4543 ft 100 kts 304°
2026-04-23 17:41 51.15638 10.17945 4553 ft 101 kts 308°
2026-04-23 17:42 51.16339 10.15859 4499 ft 111 kts 304°
2026-04-23 17:42 51.16698 10.14798 4468 ft 106 kts 303°
2026-04-23 17:42 51.17043 10.13774 4464 ft 104 kts 303°
2026-04-23 17:43 51.17386 10.12769 4470 ft 104 kts 303°
2026-04-23 17:43 51.17729 10.11743 4479 ft 108 kts 304°
2026-04-23 17:43 51.18088 10.10700 4477 ft 106 kts 304°
2026-04-23 17:43 51.18444 10.09675 4466 ft 104 kts 303°
2026-04-23 17:44 51.18796 10.08688 4470 ft 102 kts 303°
2026-04-23 17:44 51.19122 10.07686 4470 ft 102 kts 303°
2026-04-23 17:44 51.19791 10.05711 4477 ft 106 kts 305°
2026-04-23 17:45 51.20138 10.04691 4467 ft 103 kts 304°
2026-04-23 17:45 51.20829 10.02650 4465 ft 105 kts 303°
2026-04-23 17:45 51.21181 10.01628 4473 ft 106 kts 303°
2026-04-23 17:46 51.21888 9.99557 4474 ft 104 kts 303°
2026-04-23 17:46 51.22221 9.98540 4468 ft 102 kts 303°
2026-04-23 17:46 51.22559 9.97534 4476 ft 107 kts 305°
2026-04-23 17:47 51.22907 9.96513 4468 ft 102 kts 302°
2026-04-23 17:47 51.23129 9.95451 4467 ft 101 kts 291°
2026-04-23 17:47 51.23467 9.93264 4478 ft 101 kts 291°
2026-04-23 17:48 51.23638 9.92163 4471 ft 101 kts 292°
2026-04-23 17:48 51.23812 9.91077 4468 ft 101 kts 292°
2026-04-23 17:48 51.23986 9.89994 4475 ft 102 kts 291°
2026-04-23 17:48 51.24190 9.88907 4482 ft 102 kts 293°
2026-04-23 17:49 51.24406 9.87838 4480 ft 100 kts 296°
2026-04-23 17:49 51.24636 9.86764 4481 ft 103 kts 296°
2026-04-23 17:49 51.24880 9.85692 4473 ft 101 kts 296°
2026-04-23 17:49 51.25133 9.84598 4474 ft 108 kts 298°
2026-04-23 17:50 51.25412 9.83483 4476 ft 105 kts 300°
2026-04-23 17:50 51.25980 9.81402 4468 ft 100 kts 300°
2026-04-23 17:50 51.26276 9.80397 4461 ft 101 kts 302°
2026-04-23 17:51 51.26571 9.79405 4478 ft 98 kts 302°
2026-04-23 17:51 51.26870 9.78411 4449 ft 104 kts 302°
2026-04-23 17:51 51.27482 9.76389 4475 ft 102 kts 302°
2026-04-23 17:52 51.27784 9.75379 4476 ft 100 kts 302°
2026-04-23 17:52 51.28380 9.73389 4480 ft 99 kts 302°
2026-04-23 17:52 51.28678 9.72387 4486 ft 100 kts 302°
2026-04-23 17:53 51.29281 9.70373 4483 ft 101 kts 301°
2026-04-23 17:53 51.29610 9.69313 4302 ft 110 kts 302°
2026-04-23 17:53 51.29960 9.68212 4128 ft 111 kts 302°
2026-04-23 17:54 51.30297 9.67155 3875 ft 103 kts 302°
2026-04-23 17:54 51.30623 9.66154 3663 ft 102 kts 301°
2026-04-23 17:54 51.31311 9.64117 3134 ft 101 kts 303°
2026-04-23 17:55 51.31995 9.62121 2632 ft 102 kts 303°
2026-04-23 17:55 51.32331 9.61141 2502 ft 97 kts 303°
2026-04-23 17:55 51.32640 9.60238 2488 ft 88 kts 303°
2026-04-23 17:56 51.32917 9.59382 2507 ft 89 kts 303°
2026-04-23 17:56 51.33491 9.57680 2485 ft 86 kts 303°
2026-04-23 17:56 51.33776 9.56828 2485 ft 86 kts 302°
2026-04-23 17:57 51.34055 9.55995 2486 ft 84 kts 302°
2026-04-23 17:57 51.34335 9.55169 2518 ft 87 kts 302°
2026-04-23 17:57 51.34936 9.53436 2475 ft 87 kts 303°
2026-04-23 17:58 51.35213 9.52641 2472 ft 79 kts 302°
2026-04-23 17:58 51.35472 9.51880 2462 ft 76 kts 303°
2026-04-23 17:58 51.35724 9.51141 2475 ft 76 kts 302°
2026-04-23 17:58 51.36005 9.50467 2471 ft 71 kts 316°
2026-04-23 17:59 51.36370 9.49970 2460 ft 61 kts 317°
2026-04-23 17:59 51.36686 9.49498 2405 ft 70 kts 317°
2026-04-23 17:59 51.37056 9.48945 2211 ft 72 kts 317°
2026-04-23 17:59 51.37394 9.48397 1987 ft 66 kts 311°
2026-04-23 18:00 51.37672 9.47857 1966 ft 61 kts 310°
2026-04-23 18:00 51.37943 9.47332 1965 ft 60 kts 310°
2026-04-23 18:00 51.38206 9.46796 1972 ft 64 kts 310°
2026-04-23 18:00 51.38503 9.46233 1975 ft 67 kts 310°
2026-04-23 18:01 51.38770 9.45700 1960 ft 55 kts 311°
2026-04-23 18:01 51.38922 9.45403 1960 ft 48 kts 310°
2026-04-23 18:01 51.39118 9.45006 1924 ft 47 kts 310°
2026-04-23 18:01 51.39447 9.44739 1761 ft 62 kts 342°
2026-04-23 18:02 51.39884 9.44539 1609 ft 66 kts 341°
2026-04-23 18:02 51.40304 9.44412 1577 ft 57 kts 341°
2026-04-23 18:02 51.40664 9.44230 1534 ft 54 kts 329°
2026-04-23 18:02 51.41014 9.43975 1445 ft 55 kts 330°
2026-04-23 18:03 51.41334 9.43655 1374 ft 57 kts 318°
2026-04-23 18:03 51.41596 9.43191 1272 ft 55 kts 307°
2026-04-23 18:03 51.41784 9.42662 1161 ft 55 kts 294°
2026-04-23 18:03 51.41913 9.42063 1036 ft 59 kts 281°
2026-04-23 18:04 51.41950 9.41444 891 ft 52 kts 277°
2026-04-23 18:04 51.41978 9.40962 851 ft 38 kts 281°
2026-04-23 18:04 51.41995 9.40586 831 ft 26 kts 278°
2026-04-23 18:04 51.42015 9.40347 831 ft 18 kts 276°
2026-04-23 18:05 51.42026 9.40175 833 ft 15 kts 272°
2026-04-23 18:05 51.41999 9.40077 835 ft 13 kts 132°
2026-04-23 18:05 51.41942 9.40218 835 ft 16 kts 123°
2026-04-23 18:05 51.41876 9.40248 836 ft 13 kts 234°
2026-04-23 18:06 51.41870 9.40121 837 ft 11 kts 275°
2026-04-23 18:06 51.41878 9.39984 838 ft 15 kts 276°
2026-04-23 18:06 51.41886 9.39829 839 ft 12 kts 263°
2026-04-23 18:06 51.41807 9.39774 839 ft 15 kts 181°
2026-04-23 18:07 51.41777 9.39678 839 ft 12 kts 285°
2026-04-23 18:07 51.41794 9.39539 836 ft 13 kts 272°
2026-04-23 18:07 51.41764 9.39486 839 ft 9 kts 191°
2026-04-23 18:07 51.41734 9.39516 839 ft 0 kts 96°